Weather Roundup
Issued by NWS

Home | Current Version | Previous Version | Graphics & Text | Print | Product List | Glossary Off
Versions: 1 2 3 4 5 6 7 8 9 10 11 12 13 14 15 16 17 18 19 20 21 22 23 24 25 26 27 28 29 30 31 32 33 34 35 36 37 38 39 40 41 42 43 44 45 46 47 48 49 50

677
NZUS93 KARX 060659
HRRWXR

CURRENT HOURLY OBSERVATIONS ACROSS
MUCH OF THE UPPER MISSISSIPPI VALLEY
NATIONAL WEATHER SERVICE LA CROSSE WI
200 AM CDT FRI MAY 06 2016


...SOUTHEAST MINNESOTA...


CITY           SKY/WX    TMP DP  RH WIND       PRES   REMARKS
ROCHESTER      CLEAR     60  40  47 W15       29.92F
ROCHESTER/MAYO FAIR      63  38  40 SW12G18   29.90F
WINONA         PTCLDY    54  45  71 CALM      29.90F
AUSTIN         CLEAR     54  39  58 SW5       29.93F
ALBERT LEA     CLEAR     63  37  39 SW7       29.93F
DODGE CENTER   CLEAR     54  39  58 SW12      29.92S
PRESTON        CLEAR     52  37  56 SW10      29.93F
OWATONNA       CLEAR     61  39  44 SW10      29.92S
FARIBAULT      NOT AVBL
$$

...ELSEWHERE IN MINNESOTA...


CITY           SKY/WX    TMP DP  RH WIND       PRES   REMARKS
MINNEAPOLIS    CLEAR     65  41  41 SW8       29.86F
INTNL FALLS    CLEAR     61  40  45 SW5       29.70S
DULUTH         PTCLDY    63  42  46 W13       29.78S
RED WING       PTCLDY    54  43  66 CALM      29.86F
REDWOOD FALLS  CLEAR     60  41  49 SW12      29.90S
MANKATO        CLEAR     63  39  42 S5        29.92S
WORTHINGTON    CLEAR     60  42  51 SW17      29.95S
FAIRMONT       CLEAR     57  37  47 SW7       29.93F
$$

...SOUTHWEST WISCONSIN...


CITY           SKY/WX    TMP DP  RH WIND       PRES   REMARKS
LA CROSSE      PTCLDY    57  45  64 E8        29.91F
PRAIRIE DU CHI CLEAR     50  42  73 CALM      29.95F
BOSCOBEL       MOCLDY    48  43  82 NE3       29.95F
LONE ROCK      NOT AVBL
PLATTEVILLE    PTCLDY    53  39  60 S7        29.97F
FORT MC COY    MOCLDY    47  42  81 W5        29.92F HAZE
MAUSTON-NEW LI SUNNY     52  41  65 SE3       29.92F
VIROQUA        FAIR      55  38  52 SW7       29.94F
WIS DELLS      PTCLDY    48  38  67 CALM      29.94F
$$

...ELSEWHERE IN WISCONSIN...


CITY           SKY/WX    TMP DP  RH WIND       PRES   REMARKS
MILWAUKEE      PTCLDY    48  36  63 SW7       29.95F
MADISON        CLOUDY    47  38  71 CALM      29.95F
GREEN BAY      CLOUDY    50  42  74 SW3       29.91F
EAU CLAIRE     NOT AVBL
BLACK RVR FLS  FAIR      45  40  83 CALM      29.91S
MEDFORD        CLEAR     50  40  68 S7        29.89F
WAUSAU         CLEAR     53  41  63 S5        29.89F
WIS RAPIDS     CLEAR     47  38  71 SW6       29.92F
MARSHFIELD     CLEAR     51  39  63 S5        29.90F
RICE LAKE      CLEAR     52  42  69 CALM      29.86F
$$

...NORTHEAST IOWA...


CITY           SKY/WX    TMP DP  RH WIND       PRES   REMARKS
WATERLOO       CLEAR     54  38  54 SW7       29.96F
DUBUQUE        MOCLDY    50  39  66 S6        29.97F
DECORAH        PTCLDY    55  36  47 S5        29.94F
MASON CITY     PTCLDY    55  40  56 SW6       29.96F
CHARLES CITY   CLEAR     55  37  50 SW7       29.96S
OELWEIN        CLEAR     50  39  66 S7        29.97F
$$

...ELSEWHERE IN IOWA...


CITY           SKY/WX    TMP DP  RH WIND       PRES   REMARKS
DES MOINES     CLEAR     55  41  59 SW6       30.00S
IOWA CITY      CLEAR     47  40  76 CALM      30.00F
FORT DODGE     PTCLDY    50  39  66 S3        29.97S
MARSHALLTOWN   CLEAR     54  37  52 S6        29.98R
CEDAR RAPIDS   CLEAR     48  39  71 SW6       29.97F
$$

...NORTHERN ILLINOIS...


CITY           SKY/WX    TMP DP  RH WIND       PRES   REMARKS
CHICAGO-OHARE  CLEAR     46  39  76 SW3       29.97F
CHICAGO-MIDWAY CLEAR     49  39  68 SW3       29.98F
MOLINE         CLEAR     45  41  86 CALM      29.99S
ROCKFORD       PTCLDY    46  41  82 CALM      30.00S
PEORIA         CLEAR     46  40  79 CALM      30.02R
$$

NOTE: "FAIR" INDICATES FEW OR NO CLOUDS BELOW 12,000 FEET WITH NO
SIGNIFICANT WEATHER AND/OR OBSTRUCTIONS TO VISIBILITY. WIND
SPEEDS ARE IN MILES-PER-HOUR.




USA.gov is the U.S. government's official web portal to all federal, state and local government web resources and services.